This is the latest recevied weather packets stored in our database for station/object JR5YHL-13. If no packets are shown the sender has not sent any weather packets the latest 10 day(s).
| Time | Temp. | Humidity | Pressure | Rain* | Wind** | Luminosity | Snow |
|---|---|---|---|---|---|---|---|
| 1778206076 | 25.56° C | 74% | 1007.9 hPa | 0 mm | - | - | - |
| 1778205478 | 25.56° C | 74% | 1008.2 hPa | 0 mm | - | - | - |
| 1778204880 | 26.11° C | 76% | 1008.2 hPa | 0 mm | - | - | - |
| 1778204282 | 26.11° C | 75% | 1008.3 hPa | 0 mm | - | - | - |
| 1778203685 | 25.56° C | 83% | 1008.4 hPa | 0 mm | - | - | - |
| 1778203087 | 25° C | 88% | 1008.2 hPa | 0 mm | - | - | - |
| 1778202489 | 24.44° C | 91% | 1008.3 hPa | 0 mm | - | - | - |
| 1778201892 | 23.89° C | 91% | 1008.6 hPa | 0 mm | - | - | - |
| 1778201294 | 23.33° C | 94% | 1008.5 hPa | 0 mm | - | - | - |
| 1778200696 | 23.33° C | 98% | 1008.6 hPa | 0 mm | - | - | - |
| 1778200098 | 23.33° C | 99% | 1008.7 hPa | 0 mm | - | - | - |
| 1778199500 | 22.78° C | 99% | 1008.7 hPa | 0 mm | - | - | - |
| 1778198903 | 22.22° C | 99% | 1008.9 hPa | 0 mm | - | - | - |
| 1778198305 | 22.22° C | 99% | 1008.9 hPa | 0 mm | - | - | - |
| 1778197707 | 21.67° C | 99% | 1009 hPa | 0 mm | - | - | - |
| 1778197109 | 21.67° C | 99% | 1009 hPa | 0 mm | - | - | - |
| 1778196512 | 21.67° C | 99% | 1008.9 hPa | 0 mm | - | - | - |
| 1778195914 | 21.11° C | 99% | 1009.1 hPa | 0 mm | - | - | - |
| 1778195316 | 20.56° C | 99% | 1009.2 hPa | 0 mm | - | - | - |
| 1778194718 | 20.56° C | 99% | 1008.9 hPa | 0 mm | - | - | - |
| 1778194121 | 20.56° C | 99% | 1009.2 hPa | 0 mm | - | - | - |
| 1778193523 | 20° C | 99% | 1009 hPa | 0 mm | - | - | - |
| 1778192925 | 20° C | 99% | 1009.3 hPa | 0 mm | - | - | - |
| 1778192327 | 20° C | 99% | 1009 hPa | 0 mm | - | - | - |
| 1778191729 | 20° C | 99% | 1009.2 hPa | 0 mm | - | - | - |
* Rain latest hour (hover to see other rain measurements)
** Current wind speed in m/s (hover to see current wind gust speed)